Погода в Саранах

Россия / Пермский край     58°32′46″N   58°45′35″E
темп.,
°C
ветер,
м/с
пор.,
м/с
влажн.,
%
обл.,
%
осадки,
мм/ч
давл.,
гПа
погр.,
м
9 декабря, чт
чт923:00−8ююз31295100 2.3 1030588
02:00−6юз31296100 1.2 1029547
05:00−4юз41396100 2.7 1029565
08:00−4юз41296100 1.4 1029497
11:00−4юз41196100 2.2 1030443
14:00−3юз31096100 0.0 1029366
17:00−7ююз2697100 0.0 1029141
20:00−7ююз2992100 0.0 1028215
10 декабря, пт
пт1023:00−7ююз21290100 0.0 1027331
02:00−5юз41386100 0.0 1025517
05:00−5юз41292100 0.1 1024517
08:00−6зюз41196100 1.8 1023550
11:00−6зюз41095100 2.8 1024525
14:00−6з41093100 0.2 1025612
17:00−13зсз3119344 0.2 1029312
20:00−19зсз249932 0.0 103286
11 декабря, сб
сб1123:00−22сз259965 0.0 103570
02:00−22зсз229920 0.0 103638
05:00−23сз2110014 0.0 103827
08:00−23зсз219922 0.0 103916
11:00−20зсз239922 0.0 103950
14:00−14зсз279326 0.0 1038182
17:00−20сз2110066 0.0 104019
20:00−20сз119989 0.0 104123
12 декабря, вс
вс1223:00−20зсз1199100 0.0 104115
02:00−21зсз219890 0.0 104227
05:00−20з2197100 0.0 104234
08:00−21зсз229994 0.0 104234
11:00−16зсз269356 0.0 1042104
14:00−12зсз4138389 0.0 1040343
17:00−12з4168697 0.0 1040492
20:00−10зсз51874100 0.0 1039456
13 декабря, пн
пн1323:00−12зсз51678100 0.0 1039395
02:00−11зсз5167943 0.0 1039378
05:00−13з4148340 0.0 1040301
08:00−16з369362 0.0 1040113
11:00−18зюз239833 0.0 104157
14:00−13зюз299348 0.0 1039234
17:00−17зюз269768 0.0 104099
20:00−18з369966 0.0 1039107